Content
SEND FEEDBACK

Daily
Averages
Monthly
Summary
Greece

MITILINI, GREECE


Home > Europe > Greece
Elevation: 16 feet     Latitude: 39 04N     Longitude: 026 36E

WEATHER
 
SELECT A DAY
Number of Records: 88,129;   Date Range: 7/9/96 - 7/10/14
 
SHARE

PRINT THIS DATA

[ ← Previous Day ]
WEATHER ALMANAC - MARCH 28, 2013
[ Next Day → ]
[ °C ]   °F
Weather ElementAverageHighLow
Temperature60.8 °F67 °F (2:00 pm)55.4 °F (10:20 pm)
Dewpoint54.1 °F57.2 °F (1:50 am)50 °F (9:50 pm)
Humidity78.4 %94 % (1:50 am)58 % (2:00 pm)
Barometer29.94 in30.09 in (11:50 pm)29.83 in (1:50 am)
Wind Speed4.5 mph11.5 mph (2:50 am)
Weather ElementAverage
Visibility6.2 mi
Wind DirectionSE (139.1 °)

Weather ElementTotal
Precipitation---
Heating Degree Days3.8 (Base 65)
Growing Degree Days11.2 (Base 50)
Averaged from 46 records on March 28, 2013
WEATHER CONDITIONS BREAKOUT
WIND DIRECTION BREAKOUT
WEATHER BY HOUR - MARCH 28, 2013
[ °C ]   °F
Local TimeTemperatureDewpointHumidityBarometerVisibilityWind DirectionWind SpeedGust SpeedPrecipitationEventsConditions
1:50 AM59.0 °F57.2 °F94 %29.83 in6.2 miSW (220°)9.2 mphMostly Cloudy
2:00 AM59.0 °F56.0 °F88 %29.84 in6.0 miSW (220°)9.2 mphRainLight Rain
2:50 AM59.0 °F57.2 °F94 %29.83 in6.2 miWSW (240°)11.5 mphMostly Cloudy
3:50 AM59.0 °F55.4 °F88 %29.83 in6.2 miWSW (240°)10.4 mphMostly Cloudy
4:20 AM59.0 °F55.4 °F88 %29.83 in6.2 miWSW (240°)10.4 mphMostly Cloudy
4:50 AM59.0 °F55.4 °F88 %29.83 in6.2 miSW (220°)9.2 mphMostly Cloudy
5:20 AM59.0 °F55.4 °F88 %29.83 in6.2 miSW (220°)9.2 mphMostly Cloudy
5:50 AM57.2 °F53.6 °F88 %29.86 in6.2 miCalmMostly Cloudy
6:20 AM57.2 °F53.6 °F88 %29.86 in6.2 miCalmMostly Cloudy
6:50 AM57.2 °F51.8 °F82 %29.86 in6.2 miCalmMostly Cloudy
7:20 AM57.2 °F53.6 °F88 %29.86 in6.2 miVariable2.3 mphMostly Cloudy
7:50 AM57.2 °F53.6 °F88 %29.89 in6.2 miWest (260°)4.6 mphMostly Cloudy
8:00 AM57.0 °F53.0 °F81 %29.91 in6.0 miWest (260°)4.6 mphMostly Cloudy
8:20 AM57.2 °F53.6 °F88 %29.89 in6.2 miVariable2.3 mphMostly Cloudy
8:50 AM59.0 °F51.8 °F77 %29.92 in6.2 miWSW (250°)4.6 mphMostly Cloudy
9:20 AM59.0 °F51.8 °F77 %29.92 in6.2 miVariable2.3 mphMostly Cloudy
9:50 AM60.8 °F53.6 °F77 %29.92 in6.2 miNW (310°)4.6 mphMostly Cloudy
10:20 AM62.6 °F53.6 °F72 %29.95 in6.2 miVariable2.3 mphMostly Cloudy
10:50 AM62.6 °F55.4 °F77 %29.95 in6.2 miESE (120°)4.6 mphMostly Cloudy
11:20 AM62.6 °F55.4 °F77 %29.95 in6.2 miSE (130°)4.6 mphMostly Cloudy
11:50 AM62.6 °F55.4 °F77 %29.95 in6.2 miVariable2.3 mphMostly Cloudy
12:20 PM64.4 °F53.6 °F68 %29.95 in6.2 miESE (120°)4.6 mphMostly Cloudy
12:50 PM66.2 °F55.4 °F68 %29.95 in6.2 miVariable3.5 mphMostly Cloudy
1:20 PM66.2 °F55.4 °F68 %29.95 in6.2 miVariable3.5 mphScattered Clouds
1:50 PM66.2 °F55.4 °F68 %29.95 in6.2 miSouth (170°)6.9 mphScattered Clouds
2:00 PM67.0 °F56.0 °F58 %29.96 in6.0 miSouth (170°)6.9 mphScattered Clouds
2:20 PM66.2 °F55.4 °F68 %29.95 in6.2 miSW (220°)6.9 mphScattered Clouds
2:50 PM66.2 °F57.2 °F73 %29.95 in6.2 miWNW (300°)5.8 mphScattered Clouds
3:20 PM66.2 °F57.2 °F73 %29.95 in6.2 miWNW (300°)5.8 mphScattered Clouds
3:50 PM66.2 °F57.2 °F73 %29.95 in6.2 miNorth (350°)3.5 mphScattered Clouds
4:20 PM66.2 °F57.2 °F73 %29.95 in6.2 miNorth (350°)3.5 mphScattered Clouds
4:50 PM64.4 °F55.4 °F73 %29.98 in6.2 miNNW (340°)4.6 mphScattered Clouds
5:20 PM64.4 °F55.4 °F73 %29.98 in6.2 miNNW (340°)4.6 mphScattered Clouds
5:50 PM62.6 °F53.6 °F72 %29.98 in6.2 miVariable3.5 mphScattered Clouds
6:20 PM62.6 °F53.6 °F72 %29.98 in6.2 miVariable3.5 mphScattered Clouds
6:50 PM60.8 °F51.8 °F72 %29.98 in6.2 miVariable3.5 mphScattered Clouds
7:20 PM59.0 °F51.8 °F77 %30.01 in6.2 miVariable3.5 mphScattered Clouds
7:50 PM59.0 °F51.8 °F77 %30.01 in6.2 miWest (270°)3.5 mphScattered Clouds
8:00 PM59.0 °F52.0 °F69 %30.01 in6.0 miWest (270°)3.5 mphScattered Clouds
8:20 PM59.0 °F51.8 °F77 %30.01 in6.2 miWest (270°)3.5 mphScattered Clouds
8:50 PM59.0 °F51.8 °F77 %30.01 in6.2 miVariable3.5 mphScattered Clouds
9:20 PM59.0 °F51.8 °F77 %30.01 in6.2 miVariable3.5 mphScattered Clouds
9:50 PM57.2 °F50.0 °F77 %30.04 in6.2 miVariable3.5 mphScattered Clouds
10:20 PM55.4 °F51.8 °F88 %30.06 in6.2 miVariable2.3 mphScattered Clouds
10:50 PM57.2 °F51.8 °F82 %30.06 in6.2 miCalmPartly Cloudy
11:50 PM55.4 °F51.8 °F88 %30.09 in6.2 miVariable3.5 mphPartly Cloudy
Hourly data recorded from LGMT, located miles away from Mitilini, Greece







STORIES FROM OUR PARTNERS